SBCTSBPA

Guest
Details From SBCT - Afonso Pena
To SBPA - Salgado Filho
Flight Number -
Tags Generated
Created
Modified
Stats Distance 289 nm / 535 km
Max Altitude 0 ft / 0 m
Waypoints 3
Social Downloads 0
Likes 0
Share VATSIM

Download

Looking for another format? Having issues loading an existing format? Contact us
Advertisement - Login to hide

Notes

Generated

Route

SBCT COA SBPA

ID Type Via Altitude Latitude Longitude Leg Dist Tot Dist Heading (true) Name
O SBCT APT - 0 ft / 0 m -25.52836˚ -49.18010˚ - 0 nm - -
COA VOR - 0 ft / 0 m -29.95016˚ -51.14590˚ 285 nm 285 nm 201° / 202° CANOAS VOR-DME
O SBPA APT - 0 ft / 0 m -29.99414˚ -51.18327˚ 3 nm 288 nm 216° / 216° -

Altitude Profile

Advertisement - Login to hide

Weather


0- 5 10 15 20 25 30 35+ Temperature / ° C

Clouds and Precipitation
Forecast for 2018-05-21 00:00 UTC. Updated 2 hours ago

Ground ~20,000 ft ~40,000 ft Winds

SBCT

Details ICAO SBCT (CWB)
Name Afonso Pena
Region Brazil
Timezone America/Sao_Paulo (UTC-3.0)
Stats Elevation 2,988 ft / 911 m (AMSL)
Location -25.528885° -49.173062°
Runways 2
Magnetic Variation 19.673° W

METAR

SBCT 210100Z 30008KT CAVOK 10/04 Q1018

Decode

TAF

TAF SBCT 202100Z 2100/2124 22007KT CAVOK TN02/2109Z TX19/2118Z BECMG 2104/2106 20004KT PROB30 2108/2110 4000 BR NSC BECMG 2110/2112 05004KT BECMG 2114/2116 32007KT RMK PDJ

Decode

Departure Runways

ID Width Length Bearing (true) Bearing (mag) Surface Threshold Offset Overrun Length
11 148 ft / 45 m 5,909 ft / 1,801 m 91.79° 111.46° Asphalt 0 ft / 0 m 0 ft / 0 m
15 148 ft / 45 m 7,290 ft / 2,222 m 134.76° 154.43° Asphalt 0 ft / 0 m 190 ft / 58 m
29 148 ft / 45 m 5,909 ft / 1,801 m 271.78° 291.45° Asphalt 0 ft / 0 m 0 ft / 0 m
33 148 ft / 45 m 7,290 ft / 2,222 m 314.75° 334.42° Asphalt 0 ft / 0 m 185 ft / 56 m

SBPA

Details ICAO SBPA (POA)
Name Salgado Filho
Region Brazil
Timezone America/Sao_Paulo (UTC-3.0)
Stats Elevation 11 ft / 3 m (AMSL)
Location -29.994428° -51.171426°
Runways 1
Magnetic Variation 16.944° W

METAR

SBPA 210100Z 30005KT 260V340 9999 OVC025 13/12 Q1017

Decode

TAF

Not found

Destination Runways

ID Width Length Bearing (true) Bearing (mag) Surface Threshold Offset Overrun Length
11 138 ft / 42 m 7,487 ft / 2,282 m 91.60° 108.54° Asphalt 0 ft / 0 m 230 ft / 70 m
29 138 ft / 42 m 7,487 ft / 2,282 m 271.59° 288.53° Asphalt 0 ft / 0 m 197 ft / 60 m

Approach Navaids

Runway Type Ident Frequency Range Bearing (true) Bearing (mag) Slope Elevation
11 Localiser IPA 110.30 MHz 18 nm / 33 km 90.92° 107.87° - 11 ft / 3 m (AMSL)
11 Glidescope IPA 110.30 MHz 10 nm / 19 km 91.60° 108.54° 3.00° 11 ft / 3 m (AMSL)

Popular Alternatives